Ionia, MI

5:38 PM EST on November 19, 2019 (GMT -0500)
Ionia

Weather History for KY70 - September, 2019

Change the Weather History Date:

Monday, September 9, 2019

  Actual Average (WUND) Record (WUND)
Temperature  
Mean Temperature 59 °F -  
Max Temperature 66 °F - - (-1)
Min Temperature 52 °F - - (-1)
Degree Days  
Heating Degree Days 6    
Growing Degree Days 9 (Base 50)    
Moisture  
Dew Point 53 °F    
Average Humidity 83    
Maximum Humidity 95    
Minimum Humidity 72    
Precipitation  
Precipitation 0.03 in - - ()
Sea Level Pressure  
Sea Level Pressure 30.23 in    
Wind  
Wind Speed 6 mph ()    
Max Wind Speed 12 mph    
Max Gust Speed 33 mph    
Visibility 9.3 miles    
Events Rain    
Averages and records for this station are not official NWS values.
T = Trace of Precipitation, MM = Missing Value Source: Averaged Metar Reports

Daily Weather History Graph

Daily Weather History Graph

Search for Another Location

Airport or City:

Astronomy

Sep. 09, 2019 Rise Set
Actual Time 7:13 AM EDT 8:01 PM EDT
Civil Twilight 6:44 AM EDT 8:29 PM EDT
Nautical Twilight 6:10 AM EDT 9:03 PM EDT
Astronomical Twilight 5:34 AM EDT 9:39 PM EDT
Moon 6:02 PM EDT (9/9) 2:36 AM EDT (9/9)
Length of Visible Light 13h 45m
Length of Day
12h 48m
Waxing Gibbous, 83% of the Moon is Illuminated
Sep 9
Waxing Gibbous
Sep 14
Full
Sep 21
Last Quarter
Sep 28
New
Oct 5
First Quarter

Hourly Weather History & Observations

Time (EDT) Temp. Dew Point Humidity Pressure Visibility Wind Dir Wind Speed Gust Speed Precip Events Conditions
12:15 AM 56.8 °F 48.4 °F 73% 30.22 in 10.0 mi East 8.1 mph - N/A   Overcast
12:35 AM 56.7 °F 48.4 °F 74% 30.23 in 10.0 mi ENE 4.6 mph - N/A   Overcast
12:36 AM 56.7 °F 48.4 °F 74% 30.23 in 10.0 mi ENE 6.9 mph - N/A   Overcast
12:59 AM 56.5 °F 48.2 °F 74% 30.23 in 10.0 mi ENE 6.9 mph - N/A   Overcast
1:17 AM 56.3 °F 47.7 °F 73% 30.23 in 10.0 mi ENE 6.9 mph - N/A   Overcast
1:35 AM 56.3 °F 47.5 °F 72% 30.23 in 10.0 mi East 6.9 mph - N/A   Overcast
1:36 AM 56.3 °F 47.7 °F 73% 30.23 in 10.0 mi East 5.8 mph - N/A   Overcast
1:55 AM 55.9 °F 47.3 °F 73% 30.23 in 10.0 mi ENE 4.6 mph - N/A   Overcast
1:56 AM 55.9 °F 47.3 °F 73% 30.23 in 10.0 mi ENE 4.6 mph - N/A   Overcast
2:15 AM 55.9 °F 47.3 °F 73% 30.23 in 10.0 mi East 6.9 mph - N/A   Overcast
2:35 AM 55.8 °F 47.7 °F 74% 30.23 in 10.0 mi ENE 4.6 mph - N/A   Overcast
2:58 AM 55.6 °F 47.5 °F 74% 30.23 in 10.0 mi ENE 5.8 mph - N/A   Overcast
3:16 AM 55.4 °F 47.5 °F 75% 30.23 in 10.0 mi ENE 6.9 mph - N/A   Overcast
3:35 AM 55.4 °F 47.3 °F 74% 30.22 in 10.0 mi East 6.9 mph - N/A   Overcast
3:36 AM 55.4 °F 47.3 °F 74% 30.22 in 10.0 mi East 5.8 mph - N/A   Overcast
3:55 AM 55.2 °F 47.7 °F 76% 30.22 in 10.0 mi ENE 8.1 mph - N/A   Overcast
3:56 AM 55.2 °F 47.5 °F 75% 30.22 in 10.0 mi ENE 5.8 mph - N/A   Overcast
4:19 AM 55.0 °F 47.7 °F 76% 30.22 in 10.0 mi ENE 5.8 mph - N/A   Overcast
4:37 AM 54.7 °F 47.5 °F 77% 30.22 in 10.0 mi East 4.6 mph - N/A   Overcast
4:55 AM 54.7 °F 47.7 °F 77% 30.23 in 10.0 mi ENE 3.5 mph - N/A   Overcast
5:15 AM 54.7 °F 47.7 °F 77% 30.23 in 10.0 mi Calm Calm - N/A   Overcast
5:16 AM 54.7 °F 47.7 °F 77% 30.23 in 10.0 mi NE 3.5 mph - N/A   Overcast
5:35 AM 54.5 °F 48.2 °F 79% 30.23 in 10.0 mi East 4.6 mph - N/A Rain Rain
5:58 AM 53.6 °F 49.3 °F 85% 30.24 in 10.0 mi ENE 3.5 mph - N/A   Overcast
6:16 AM 53.6 °F 50.0 °F 88% 30.24 in 10.0 mi NE 4.6 mph - N/A   Overcast
6:35 AM 53.6 °F 50.2 °F 88% 30.26 in 10.0 mi NNE 4.6 mph - N/A   Overcast
6:36 AM 53.6 °F 50.2 °F 88% 30.26 in 10.0 mi NNE 4.6 mph - N/A   Overcast
6:55 AM 53.1 °F 50.4 °F 91% 30.26 in 5.0 mi NE 3.5 mph - N/A   Heavy Drizzle
6:56 AM 53.1 °F 50.4 °F 91% 30.26 in 5.0 mi ENE 3.5 mph - N/A   Heavy Drizzle
7:19 AM 52.7 °F 50.9 °F 94% 30.26 in 4.0 mi ENE 4.6 mph - 0.01 in   Drizzle
7:37 AM 52.7 °F 50.9 °F 94% 30.27 in 5.0 mi ENE 3.5 mph - 0.02 in Rain Rain
7:55 AM 52.7 °F 50.9 °F 94% 30.27 in 2.5 mi NE 3.5 mph - 0.02 in   Drizzle
7:56 AM 52.7 °F 50.9 °F 94% 30.27 in 2.5 mi NE 3.5 mph - 0.02 in   Drizzle
8:15 AM 52.7 °F 50.9 °F 94% 30.27 in 3.0 mi NE 4.6 mph - N/A   Drizzle
8:16 AM 52.7 °F 50.9 °F 94% 30.27 in 3.0 mi ENE 4.6 mph - N/A   Drizzle
8:35 AM 52.7 °F 51.1 °F 94% 30.27 in 4.0 mi ENE 5.8 mph - N/A   Drizzle
8:36 AM 52.7 °F 51.1 °F 94% 30.27 in 4.0 mi ENE 5.8 mph - N/A   Drizzle
8:59 AM 53.1 °F 51.4 °F 94% 30.27 in 7.0 mi NE 4.6 mph - 0.01 in   Overcast
9:17 AM 53.2 °F 51.8 °F 95% 30.28 in 10.0 mi East 8.1 mph - N/A   Overcast
9:35 AM 53.6 °F 51.8 °F 94% 30.28 in 10.0 mi East 5.8 mph - N/A   Overcast
9:55 AM 54.1 °F 52.3 °F 94% 30.29 in 10.0 mi ENE 4.6 mph - N/A   Overcast
10:15 AM 54.5 °F 52.5 °F 93% 30.28 in 10.0 mi ENE 6.9 mph - N/A   Overcast
10:38 AM 54.9 °F 52.7 °F 92% 30.29 in 10.0 mi ENE 6.9 mph - N/A   Overcast
10:55 AM 55.2 °F 52.9 °F 92% 30.28 in 10.0 mi ENE 9.2 mph - N/A   Overcast
11:15 AM 55.6 °F 53.2 °F 92% 30.28 in 10.0 mi ENE 9.2 mph - N/A   Overcast
11:16 AM 55.6 °F 53.1 °F 91% 30.28 in 10.0 mi ENE 8.1 mph - N/A   Overcast
11:35 AM 55.8 °F 53.2 °F 91% 30.27 in 10.0 mi ENE 8.1 mph - N/A   Overcast
11:36 AM 55.8 °F 53.2 °F 91% 30.27 in 10.0 mi North - - N/A   Overcast
11:59 AM 56.5 °F 53.8 °F 91% 30.27 in 10.0 mi ENE 8.1 mph - N/A   Overcast
12:17 PM 57.0 °F 53.8 °F 89% 30.27 in 10.0 mi East 9.2 mph - N/A   Overcast
12:35 PM 57.2 °F 54.0 °F 89% 30.27 in 10.0 mi NE 6.9 mph - N/A   Overcast
12:55 PM 58.6 °F 55.0 °F 88% 30.27 in 10.0 mi East 8.1 mph - N/A   Overcast
1:15 PM 59.0 °F 54.5 °F 85% 30.27 in 10.0 mi Calm Calm - N/A   Overcast
1:20 PM 59.2 °F 54.9 °F 86% 30.27 in 10.0 mi ENE 6.9 mph - N/A   Overcast
1:38 PM 59.4 °F 54.9 °F 85% 30.27 in 10.0 mi ENE 3.5 mph - N/A   Overcast
1:56 PM 59.9 °F 55.2 °F 84% 30.27 in 10.0 mi ENE 5.8 mph - N/A   Overcast
2:15 PM 61.7 °F 55.9 °F 81% 30.27 in 10.0 mi ENE 5.8 mph - N/A   Overcast
2:35 PM 63.5 °F 55.9 °F 76% 30.26 in 10.0 mi NNE 4.6 mph - N/A   Mostly Cloudy
2:59 PM 63.3 °F 56.3 °F 78% 30.26 in 10.0 mi NE 3.5 mph - N/A   Overcast
3:17 PM 65.1 °F 57.2 °F 75% 30.25 in 10.0 mi ENE 8.1 mph - N/A   Mostly Cloudy
3:35 PM 65.3 °F 56.5 °F 73% 30.25 in 10.0 mi ENE 5.8 mph - N/A   Mostly Cloudy
3:36 PM 65.1 °F 56.5 °F 74% 30.25 in 10.0 mi ENE 5.8 mph - N/A   Mostly Cloudy
4:15 PM 66.2 °F 56.8 °F 72% 30.24 in 10.0 mi NE 6.9 mph - N/A   Mostly Cloudy
4:38 PM 66.4 °F 57.4 °F 73% 30.23 in 10.0 mi NE 5.8 mph - N/A   Overcast
4:56 PM 66.4 °F 57.6 °F 73% 30.22 in 10.0 mi NE 6.9 mph - N/A   Overcast
5:15 PM 66.9 °F 57.9 °F 73% 30.21 in 10.0 mi ENE 10.4 mph - N/A   Overcast
5:35 PM 66.7 °F 57.6 °F 72% 30.20 in 10.0 mi ENE 9.2 mph - N/A   Scattered Clouds
5:36 PM 66.7 °F 57.7 °F 73% 30.20 in 10.0 mi ENE 10.4 mph - N/A   Scattered Clouds
5:59 PM 66.9 °F 57.9 °F 73% 30.19 in 10.0 mi NE 11.5 mph - N/A   Clear
6:17 PM 66.2 °F 57.4 °F 73% 30.20 in 10.0 mi NE 9.2 mph 33.4 mph N/A   Scattered Clouds
6:35 PM 66.4 °F 57.6 °F 73% 30.19 in 10.0 mi ENE 6.9 mph - N/A   Scattered Clouds
6:55 PM 65.8 °F 57.7 °F 75% 30.19 in 10.0 mi NE 5.8 mph - N/A   Clear
6:56 PM 65.8 °F 57.7 °F 75% 30.19 in 10.0 mi NE 5.8 mph - N/A   Clear
7:15 PM 65.7 °F 57.6 °F 75% 30.19 in 10.0 mi ENE 6.9 mph - N/A   Clear
7:20 PM 65.7 °F 57.6 °F 75% 30.19 in 10.0 mi ENE 5.8 mph - N/A   Clear
7:56 PM 63.7 °F 57.0 °F 79% 30.19 in 10.0 mi NE 6.9 mph - N/A   Clear
8:15 PM 62.8 °F 57.0 °F 81% 30.19 in 10.0 mi NE 8.1 mph - N/A   Clear
8:35 PM 62.2 °F 57.2 °F 84% 30.19 in 10.0 mi ENE 6.9 mph - N/A   Clear
8:59 PM 61.7 °F 57.0 °F 85% 30.20 in 10.0 mi ENE 9.2 mph - N/A   Scattered Clouds
9:17 PM 61.3 °F 56.8 °F 85% 30.20 in 10.0 mi ENE 6.9 mph - N/A   Clear
9:35 PM 60.8 °F 56.8 °F 87% 30.19 in 10.0 mi ENE 5.8 mph - N/A   Clear
9:55 PM 60.3 °F 56.8 °F 88% 30.19 in 10.0 mi ENE 4.6 mph - N/A   Scattered Clouds
9:56 PM 60.4 °F 56.8 °F 88% 30.19 in 10.0 mi East 4.6 mph - N/A   Scattered Clouds
10:15 PM 60.3 °F 57.2 °F 90% 30.19 in 10.0 mi East 5.8 mph - N/A   Scattered Clouds
10:20 PM 60.3 °F 57.2 °F 90% 30.19 in 10.0 mi East 5.8 mph - N/A   Scattered Clouds
10:38 PM 59.9 °F 57.4 °F 91% 30.18 in 10.0 mi East 4.6 mph - N/A   Clear
10:56 PM 59.7 °F 57.2 °F 91% 30.17 in 10.0 mi East 6.9 mph - N/A   Clear
11:15 PM 60.6 °F 58.3 °F 92% 30.17 in 10.0 mi East 8.1 mph - N/A   Clear
11:35 PM 61.9 °F 59.0 °F 90% 30.17 in 10.0 mi ESE 6.9 mph - N/A   Mostly Cloudy
11:59 PM 63.5 °F 59.4 °F 86% 30.15 in 10.0 mi ESE 9.2 mph - N/A   Mostly Cloudy